STARLINK-4059 (53250 NORAD) Tracking and Keplerian Element Data

This shows tracking and keplerian element data for the satellite.

Feedback or suggestion? Click here.




ElementValue
Catalog53250
NameSTARLINK-4059
Epoch Orbit130
Epoch Day269.91667824
Epoch Year2022
RAAN89.6284
Inclination53.2174
Eccentricity0.00016
Argument of Perigee46.6369
Mean Anonmoly13.7772
Mean Motion15.17995221
Decay Rate-0.01077628
L11 53250U 22086J 22269.91667824 -.01077628 00000+0 -56517-1 0 9994
L22 53250 53.2174 89.6284 0001600 46.6369 13.7772 15.17995221 1300

Live tracking and technical data element details for STARLINK-4059 (NORAD 53250). STARLINK-4059 can be tracked NOW for your location showing map with azimuth and elevation plus other details from your city location.

Track the satellite on the map from your city or location and see movement details for azimuth, elevation, latitude, longitude, range, height, and movement on the map or in text.







IsCatalogInMostPopularTable: catalog: 53250, numindb: 3
Update: records affected: 1



GetName: 53250 STARLINK-4059

Hit Count: updated at: Thu, 29 Sep 2022 11:53:25 GMT